Regional Weather Roundup
Issued by NWS

Home | Current Version | Previous Version | Graphics & Text | Print | Product List | Glossary On
Versions: 1 2 3 4 5 6 7 8 9 10 11 12 13 14 15 16 17 18 19 20 21 22 23 24 25 26 27 28 29 30 31 32 33 34 35 36 37 38 39 40 41 42 43 44 45 46 47 48 49 50
000
ASUS43 KLMK 301810
RWRKY
KENTUCKY REGIONAL WEATHER ROUNDUP
NATIONAL WEATHER SERVICE LOUISVILLE KY
200 PM EDT MON MAR 30 2015

NOTE "FAIR" INDICATES FEW OR NO CLOUDS BELOW 12,000 FEET
WITH NO SIGNIFICANT WEATHER AND/OR OBSTRUCTIONS TO VISIBILITY.

KYZ001>023-026-027-061>063-070>075-301900-
WESTERN AND SOUTH CENTRAL KENTUCKY

CITY           SKY/WX    TMP DP  RH WIND       PRES   REMARKS
PADUCAH        MOSUNNY   65  26  23 VRB3      30.19F
HENDERSON      MOSUNNY   61  34  36 CALM      30.18F
OWENSBORO      SUNNY     60  32  34 N9        30.19F
HOPKINSVILLE   SUNNY     62  27  26 W6        30.19F
BOWLING GREEN  SUNNY     63  28  26 NW12      30.18F
GLASGOW        SUNNY     61  28  29 NW9G20    30.18F
$$

KYZ024-025-028>034-038-045-046-053-301900-
NORTH CENTRAL KENTUCKY

CITY           SKY/WX    TMP DP  RH WIND       PRES   REMARKS
LOUISVILLE/SDF MOSUNNY   62  24  23 N12       30.16F
LOUISVILLE/LOU SUNNY     59  27  29 W13       30.15F
FORT KNOX      SUNNY     61  25  25 NW12G22   30.14F
$$

KYZ035>037-039>044-047>052-055>060-089>105-301900-
NORTHEAST KENTUCKY

CITY           SKY/WX    TMP DP  RH WIND       PRES   REMARKS
LEXINGTON      MOSUNNY   59  31  34 W16G28    30.14F
COVINGTON      MOSUNNY   56  30  37 W14G23    30.11F
FRANKFORT      SUNNY     58  28  32 NW8       30.12F
$$

KYZ054-064>069-076>088-106>120-301900-
SOUTHEAST KENTUCKY

CITY           SKY/WX    TMP DP  RH WIND       PRES   REMARKS
JACKSON        MOSUNNY   57  27  31 W10G18    30.12F
LONDON         MOSUNNY   60  29  30 W12       30.13F
SOMERSET       SUNNY     59  32  36 NW10      30.16F
MIDDLESBORO    MOSUNNY   59  35  39 NW9       30.13F
MONTICELLO     CLEAR     62  31  31 W13       30.18F
$$



USA.gov is the U.S. government's official web portal to all federal, state and local government web resources and services.